Content
SEND FEEDBACK

Daily
Averages
Monthly
Summary
United States of America

PYGA BEACH, GUAM


Home > North America > United States > Guam
Elevation: 6 meters     Latitude: 13 17N     Longitude: 144 39E

WEATHER
 
SELECT A DAY
Number of Records: 350,245;   Date Range: 1/1/95 - 9/30/14
 
SHARE

PRINT THIS DATA

[ ← Previous Day ]
WEATHER ALMANAC - 18 APRIL, 2013
[ Next Day → ]
[ °F ]   °C
Weather ElementAverageHighLow
Temperature27.1 °C29.3 °C (12:55 pm)23.7 °C (4:55 am)
Dewpoint23.1 °C24 °C (6:43 am)21.8 °C (4:55 am)
Humidity79.3 %94 % (11:47 pm)69 % (11:55 am)
Barometer1010.5 hPa1011.9 hPa (8:28 am)1008.8 hPa (2:55 pm)
Wind Speed16.3 km/h20.4 km/h (1:55 pm)
Wind Gust29.6 km/h (11:55 am)
Weather ElementAverage
Visibility16.1 km
Wind DirectionENE (75.4 °)

Weather ElementTotal
Precipitation---
Cooling Degree Days8.2 (Base 18.3)
Growing Degree Days16.5 (Base 10)
Averaged from 57 records on 18 April, 2013
WEATHER CONDITIONS BREAKOUT
WIND DIRECTION BREAKOUT
WEATHER BY HOUR - 18 APRIL, 2013
[ °F ]   °C
Local TimeTemperatureDewpointHumidityBarometerVisibilityWind DirectionWind SpeedGust SpeedPrecipitationEventsConditions
12:42 AM25 °C23 °C89 %1010.8 hPa16.1 kmENE (70°)13 km/hScattered Clouds
12:55 AM24.9 °C22.5 °C86 %1010.5 hPa16.1 kmEast (80°)14.8 km/hPartly Cloudy
1:55 AM25 °C22.6 °C86 %1010.2 hPa16.1 kmEast (80°)13 km/hClear
2:55 AM25 °C22.4 °C85 %1009.8 hPa16.1 kmEast (90°)11.1 km/hClear
3:55 AM24.9 °C22.5 °C86 %1009.5 hPa16.1 kmEast (90°)9.3 km/hClear
4:55 AM23.7 °C21.8 °C89 %1009.8 hPa16.1 kmEast (90°)11.1 km/hClear
5:55 AM24.5 °C22.6 °C89 %1010.5 hPa16.1 kmENE (60°)11.1 km/hClear
6:40 AM26 °C23 °C83 %1010.5 hPa16.1 kmNE (40°)14.8 km/hRainLight Rain
6:43 AM26 °C24 °C89 %1010.5 hPa16.1 kmNE (40°)14.8 km/hRainLight Rain
6:50 AM26 °C24 °C89 %1010.5 hPa16.1 kmNE (40°)16.7 km/hMostly Cloudy
6:55 AM25.7 °C23.5 °C88 %1010.5 hPa16.1 kmNE (40°)16.7 km/h0 mmMostly Cloudy
7:29 AM26 °C23 °C83 %1011.2 hPa16.1 kmENE (60°)14.8 km/hMostly Cloudy
7:51 AM26 °C23 °C83 %1011.2 hPa16.1 kmENE (70°)14.8 km/hMostly Cloudy
7:55 AM26.7 °C22.9 °C80 %1011.5 hPa16.1 kmNE (50°)16.7 km/hMostly Cloudy
8:10 AM27 °C23 °C79 %1011.5 hPa16.1 kmENE (70°)16.7 km/hScattered Clouds
8:12 AM27 °C23 °C79 %1011.5 hPa16.1 kmENE (60°)16.7 km/hMostly Cloudy
8:25 AM27 °C23 °C79 %1011.5 hPa16.1 kmNE (50°)16.7 km/hScattered Clouds
8:28 AM27 °C23 °C79 %1011.9 hPa16.1 kmNE (50°)16.7 km/hMostly Cloudy
8:43 AM28 °C23 °C74 %1011.5 hPa16.1 kmEast (80°)18.5 km/hMostly Cloudy
8:55 AM28.2 °C23 °C73 %1011.9 hPa16.1 kmENE (70°)16.7 km/hScattered Clouds
9:52 AM28 °C23 °C74 %1011.5 hPa16.1 kmEast (90°)18.5 km/hMostly Cloudy
9:55 AM28.4 °C23 °C72 %1011.5 hPa16.1 kmEast (100°)16.7 km/hMostly Cloudy
10:46 AM29 °C23 °C70 %1011.2 hPa16.1 kmENE (70°)18.5 km/hScattered Clouds
10:55 AM29.2 °C23.5 °C71 %1011.2 hPa16.1 kmENE (70°)18.5 km/hScattered Clouds
11:05 AM29 °C23 °C70 %1010.8 hPa16.1 kmEast (90°)16.7 km/hMostly Cloudy
11:08 AM29 °C23 °C70 %1011.2 hPa16.1 kmEast (90°)16.7 km/hScattered Clouds
11:09 AM29 °C23 °C70 %1011.2 hPa16.1 kmEast (90°)14.8 km/hMostly Cloudy
11:25 AM29 °C24 °C74 %1010.8 hPa16.1 kmENE (70°)16.7 km/hScattered Clouds
11:29 AM29 °C24 °C74 %1010.8 hPa16.1 kmEast (80°)16.7 km/hMostly Cloudy
11:31 AM29 °C24 °C74 %1010.8 hPa16.1 kmENE (70°)18.5 km/hScattered Clouds
11:32 AM29 °C24 °C74 %1010.8 hPa16.1 kmENE (70°)18.5 km/hMostly Cloudy
11:35 AM29 °C23 °C70 %1010.8 hPa16.1 kmENE (70°)18.5 km/hScattered Clouds
11:55 AM29.2 °C23.1 °C69 %1010.8 hPa16.1 kmENE (70°)18.5 km/h29.6 km/hScattered Clouds
12:55 PM29.3 °C23.3 °C70 %1010.2 hPa16.1 kmENE (70°)18.5 km/hMostly Cloudy
1:55 PM28.9 °C23.2 °C71 %1009.1 hPa16.1 kmENE (70°)20.4 km/hClear
2:55 PM29 °C23.2 °C71 %1008.8 hPa16.1 kmENE (70°)16.7 km/hScattered Clouds
2:56 PM29 °C23 °C70 %1008.8 hPa16.1 kmENE (60°)18.5 km/hMostly Cloudy
3:10 PM29 °C23 °C70 %1008.8 hPa16.1 kmEast (80°)20.4 km/hScattered Clouds
3:34 PM29 °C24 °C74 %1008.8 hPa16.1 kmENE (70°)20.4 km/h25.9 km/hMostly Cloudy
3:43 PM29 °C23 °C70 %1008.8 hPa16.1 kmEast (90°)18.5 km/hScattered Clouds
3:55 PM28.5 °C23.1 °C72 %1008.8 hPa16.1 kmEast (90°)18.5 km/hScattered Clouds
4:55 PM27.8 °C23.3 °C76 %1008.8 hPa16.1 kmEast (80°)18.5 km/hPartly Cloudy
5:55 PM27.1 °C23.1 °C79 %1009.5 hPa16.1 kmENE (70°)18.5 km/hScattered Clouds
6:55 PM26.2 °C22.8 °C81 %1010.2 hPa16.1 kmEast (80°)13 km/hClear
7:55 PM26.1 °C22.7 °C81 %1010.8 hPa16.1 kmEast (80°)13 km/hPartly Cloudy
8:37 PM26 °C23 °C83 %1011.2 hPa16.1 kmEast (80°)11.1 km/hMostly Cloudy
8:47 PM26 °C23 °C83 %1011.2 hPa16.1 kmEast (90°)14.8 km/hMostly Cloudy
8:55 PM26.3 °C23.1 °C82 %1011.5 hPa16.1 kmEast (100°)14.8 km/hMostly Cloudy
9:12 PM26 °C23 °C83 %1011.5 hPa16.1 kmENE (70°)13 km/hMostly Cloudy
9:21 PM26 °C23 °C83 %1011.5 hPa16.1 kmEast (80°)18.5 km/hMostly Cloudy
9:55 PM26 °C23.2 °C84 %1011.9 hPa16.1 kmEast (80°)14.8 km/hPartly Cloudy
10:55 PM25.7 °C23.1 °C85 %1011.5 hPa16.1 kmENE (70°)14.8 km/hPartly Cloudy
11:36 PM26 °C24 °C89 %1011.2 hPa16.1 kmEast (90°)13 km/hLight Drizzle
11:47 PM25 °C24 °C94 %1011.2 hPa16.1 kmEast (100°)20.4 km/hLight Drizzle
11:50 PM25 °C23 °C89 %1011.2 hPa16.1 kmESE (110°)20.4 km/hMostly Cloudy
11:52 PM25 °C23 °C89 %1011.2 hPa16.1 kmEast (100°)16.7 km/hMostly Cloudy
11:55 PM24.9 °C23.2 °C90 %1011.2 hPa16.1 kmESE (110°)14.8 km/h0 mmOvercast
Hourly data recorded from PGUA, located 0 kilometers away from Pyga Beach, Guam







STORIES FROM OUR PARTNERS